Location: Cargill Incorporated Elevator
(42.7294°N, 93.7333°W)
Time: 04:56:23
(UTC+00:00)

Cosmos 1821 Rocket - Pass Details

Date: 19 January 2026
Orbit: 943 x 1004 km, 82.9° (Epoch: 14 February)

Event Time Altitude Azimuth Distance (km) Brightness Sun altitude
Rises 12:43:08 0° 180° (S) 3,714 7.3 -10.5°
Reaches altitude 10° 12:45:39 10° 179° (S) 2,766 6.6 -10.1°
Maximum altitude 12:52:00 77° 95° (E) 1,027 4.3 -9.0°
Drops below altitude 10° 12:58:20 10° 11° (N) 2,756 6.3 -7.9°
Sets 13:00:50 0° 10° (N) 3,700 6.9 -7.5°
